Fremont, NE

12:23 AM CST on January 20, 2017 (GMT -0600)
Fremont Municipal

Weather History for KFET - January, 2011

Change the Weather History Date:

Tuesday, January 18, 2011

  Actual Average Record
Temperature  
Mean Temperature 12 °F -  
Max Temperature 16 °F 33 °F 63 °F (1951)
Min Temperature 9 °F 14 °F -10 °F (1970)
Degree Days  
Heating Degree Days 52    
Moisture  
Dew Point 7 °F    
Average Humidity 79    
Maximum Humidity 88    
Minimum Humidity 71    
Precipitation  
Precipitation 0.01 in - - ()
Sea Level Pressure  
Sea Level Pressure 30.06 in    
Wind  
Wind Speed 12 mph (NNW)    
Max Wind Speed 21 mph    
Max Gust Speed 25 mph    
Visibility 9 miles    
Events Snow    
Averages and records for this station are not official NWS values.
T = Trace of Precipitation, MM = Missing Value Source: NWS Daily Summary

Daily Weather History Graph

Daily Weather History Graph

Search for Another Location

Airport or City:

Trip Planner

Search our weather history database for the weather conditions in past years. The results will help you decide how hot, cold, wet, or windy it might be!

Date:

Astronomy

Jan. 18, 2011 Rise Set
Actual Time 7:48 AM CST 5:24 PM CST
Civil Twilight 7:18 AM CST 5:54 PM CST
Nautical Twilight 6:44 AM CST 6:28 PM CST
Astronomical Twilight 6:11 AM CST 7:02 PM CST
Moon 4:21 PM CST (1/18) 6:44 AM CST (1/18)
Length of Visible Light 10h 36m
Length of Day
9h 35m
Waxing Gibbous, 98% of the Moon is Illuminated
Jan 18
Waxing Gibbous
Jan 19
Full
Jan 26
Last Quarter
Feb 2
New
Feb 11
First Quarter

Hourly Weather History & Observations

Time (CST) Temp. Windchill Dew Point Humidity Pressure Visibility Wind Dir Wind Speed Gust Speed Precip Events Conditions
12:10 AM 16.2 °F 0.8 °F 11.1 °F 81% 29.91 in 10.0 mi NNW 16.1 mph 25.3 mph N/A   Overcast
12:30 AM 15.8 °F 0.9 °F 10.8 °F 80% 29.92 in 10.0 mi NNW 15.0 mph 25.3 mph N/A   Overcast
12:50 AM 15.8 °F -0.6 °F 10.9 °F 81% 29.92 in 10.0 mi NNW 18.4 mph - N/A   Overcast
1:30 AM 14.9 °F -2.7 °F 10.4 °F 82% 29.94 in 5.0 mi NNW 20.7 mph 24.2 mph N/A   Haze
1:50 AM 14.7 °F -1.6 °F 9.7 °F 80% 29.95 in 10.0 mi NW 17.3 mph 24.2 mph N/A   Overcast
2:10 AM 14.4 °F -1.0 °F 9.5 °F 81% 29.96 in 10.0 mi NNW 15.0 mph 20.7 mph N/A   Overcast
2:30 AM 14.0 °F -0.8 °F 9.5 °F 82% 29.97 in 10.0 mi NNW 13.8 mph 18.4 mph N/A   Overcast
3:10 AM 13.6 °F -3.0 °F 8.6 °F 80% 29.99 in 10.0 mi NW 17.3 mph - N/A   Overcast
3:30 AM 13.3 °F -3.4 °F 8.4 °F 81% 29.99 in 10.0 mi NNW 17.3 mph - N/A   Overcast
3:50 AM 13.1 °F -1.4 °F 7.9 °F 80% 29.99 in 10.0 mi NNW 12.7 mph - N/A   Overcast
4:30 AM 12.9 °F -1.6 °F 7.5 °F 79% 30.00 in 10.0 mi NNW 12.7 mph 17.3 mph N/A   Overcast
4:50 AM 12.9 °F -1.6 °F 7.9 °F 80% 29.99 in 10.0 mi NW 12.7 mph - N/A   Overcast
5:10 AM 12.7 °F -0.4 °F 7.7 °F 80% 30.00 in 10.0 mi NNW 10.4 mph 18.4 mph N/A   Overcast
5:30 AM 12.2 °F -3.1 °F 6.8 °F 79% 30.01 in 10.0 mi NNW 13.8 mph 17.3 mph N/A   Overcast
5:50 AM 12.2 °F -0.2 °F 7.0 °F 80% 30.02 in 10.0 mi NNW 9.2 mph - N/A   Overcast
6:10 AM 12.2 °F -1.8 °F 6.6 °F 78% 30.04 in 10.0 mi NNW 11.5 mph - N/A   Overcast
6:30 AM 11.8 °F -4.8 °F 6.6 °F 80% 30.05 in 10.0 mi NNW 16.1 mph - N/A   Overcast
6:50 AM 11.7 °F -3.2 °F 5.9 °F 78% 30.06 in 10.0 mi NNW 12.7 mph - N/A   Overcast
7:10 AM 11.5 °F -1.9 °F 5.9 °F 78% 30.06 in 10.0 mi NNW 10.4 mph 23.0 mph N/A   Overcast
7:30 AM 11.3 °F -2.9 °F 5.4 °F 77% 30.07 in 10.0 mi NNW 11.5 mph - N/A   Overcast
7:50 AM 11.7 °F -3.8 °F 6.3 °F 79% 30.08 in 10.0 mi NW 13.8 mph - N/A   Overcast
8:10 AM 11.3 °F -2.2 °F 5.7 °F 78% 30.07 in 10.0 mi NNW 10.4 mph - N/A   Overcast
8:30 AM 11.1 °F -0.6 °F 5.2 °F 77% 30.07 in 10.0 mi North 8.1 mph - N/A   Overcast
8:50 AM 11.1 °F -2.4 °F 5.2 °F 77% 30.08 in 10.0 mi NNW 10.4 mph - N/A   Overcast
9:10 AM 11.3 °F -0.4 °F 5.2 °F 76% 30.08 in 10.0 mi North 8.1 mph - N/A   Overcast
9:30 AM 11.3 °F -1.3 °F 5.0 °F 76% 30.09 in 10.0 mi NNW 9.2 mph - N/A   Overcast
9:50 AM 11.8 °F 0.3 °F 5.7 °F 76% 30.10 in 10.0 mi NNW 8.1 mph - N/A   Overcast
10:10 AM 12.0 °F -2.0 °F 5.7 °F 76% 30.11 in 10.0 mi NNW 11.5 mph - N/A   Overcast
10:30 AM 12.0 °F -0.4 °F 5.5 °F 75% 30.11 in 10.0 mi NNW 9.2 mph 16.1 mph N/A   Overcast
10:50 AM 12.4 °F -2.3 °F 5.4 °F 73% 30.11 in 10.0 mi NNW 12.7 mph 21.9 mph N/A   Overcast
11:30 AM 12.9 °F 3.8 °F 6.4 °F 75% 30.10 in 10.0 mi North 5.8 mph - N/A   Overcast
12:10 PM 13.5 °F 3.3 °F 6.8 °F 75% 30.08 in 10.0 mi NNW 6.9 mph - N/A   Overcast
12:30 PM 13.6 °F 3.5 °F 7.0 °F 75% 30.08 in 10.0 mi NNW 6.9 mph - N/A   Overcast
12:50 PM 14.2 °F 3.1 °F 7.3 °F 74% 30.07 in 10.0 mi NW 8.1 mph - N/A   Overcast
1:10 PM 13.8 °F 1.8 °F 6.8 °F 74% 30.07 in 10.0 mi NNW 9.2 mph - N/A   Scattered Clouds
1:30 PM 14.4 °F 2.4 °F 7.3 °F 74% 30.06 in 10.0 mi NNW 9.2 mph - N/A   Scattered Clouds
1:50 PM 14.2 °F 0.7 °F 6.6 °F 72% 30.06 in 10.0 mi NNW 11.5 mph 20.7 mph N/A   Mostly Cloudy
2:10 PM 14.5 °F 1.9 °F 7.0 °F 72% 30.06 in 10.0 mi NW 10.4 mph 19.6 mph N/A   Mostly Cloudy
2:30 PM 15.1 °F 2.5 °F 7.2 °F 71% 30.06 in 10.0 mi NNW 10.4 mph - N/A   Scattered Clouds
2:50 PM 14.9 °F 6.1 °F 7.9 °F 74% 30.06 in 10.0 mi North 5.8 mph - N/A   Mostly Cloudy
3:10 PM 14.5 °F 5.7 °F 7.2 °F 73% 30.07 in 10.0 mi North 5.8 mph - N/A   Overcast
3:50 PM 13.5 °F 5.8 °F 9.1 °F 83% 30.08 in 1.2 mi North 4.6 mph - N/A Snow Light Snow
4:10 PM 12.7 °F 2.4 °F 9.3 °F 86% 30.09 in 1.0 mi North 6.9 mph - N/A Snow Light Snow
4:30 PM 12.4 °F 2.0 °F 9.3 °F 88% 30.10 in 1.0 mi North 6.9 mph - N/A Snow Light Snow
4:50 PM 12.2 °F 6.1 °F 9.0 °F 87% 30.11 in 1.5 mi North 3.5 mph - N/A Snow Light Snow
5:10 PM 12.2 °F 2.9 °F 8.8 °F 86% 30.12 in 1.5 mi North 5.8 mph - N/A Snow Light Snow
5:30 PM 11.7 °F 5.5 °F 8.4 °F 87% 30.13 in 2.5 mi North 3.5 mph - 0.01 in Snow Light Snow
5:50 PM 11.1 °F 0.4 °F 7.2 °F 84% 30.13 in 7.0 mi NNW 6.9 mph - 0.01 in Snow Light Snow
6:10 PM 11.1 °F 1.7 °F 6.8 °F 83% 30.12 in 10.0 mi North 5.8 mph - N/A   Mostly Cloudy
6:30 PM 10.6 °F 1.0 °F 6.4 °F 83% 30.13 in 10.0 mi North 5.8 mph - N/A   Overcast
6:50 PM 10.4 °F 0.8 °F 5.9 °F 82% 30.13 in 10.0 mi North 5.8 mph - N/A   Overcast
7:10 PM 10.4 °F 0.8 °F 6.1 °F 83% 30.14 in 10.0 mi North 5.8 mph - N/A   Overcast
7:30 PM 10.2 °F 0.6 °F 5.5 °F 81% 30.14 in 10.0 mi NNW 5.8 mph - N/A   Overcast
7:50 PM 10.0 °F -3.7 °F 4.8 °F 79% 30.15 in 10.0 mi NW 10.4 mph 16.1 mph N/A   Overcast
8:10 PM 9.9 °F 1.6 °F 5.7 °F 83% 30.15 in 10.0 mi North 4.6 mph - N/A   Overcast
8:50 PM 9.5 °F 1.2 °F 5.0 °F 82% 30.15 in 10.0 mi North 4.6 mph - N/A   Overcast
9:10 PM 9.3 °F 2.8 °F 4.8 °F 82% 30.15 in 10.0 mi North 3.5 mph - N/A   Overcast
9:30 PM 9.1 °F -1.9 °F 4.8 °F 83% 30.15 in 10.0 mi NNW 6.9 mph - N/A   Overcast
9:50 PM 8.6 °F -1.3 °F 4.3 °F 83% 30.14 in 10.0 mi North 5.8 mph - N/A   Overcast
10:10 PM 8.6 °F 0.1 °F 4.6 °F 84% 30.15 in 10.0 mi NNW 4.6 mph - N/A   Overcast
10:30 PM 8.8 °F -3.5 °F 3.9 °F 81% 30.16 in 10.0 mi NNW 8.1 mph - N/A   Overcast
10:50 PM 8.6 °F -4.7 °F 3.7 °F 81% 30.16 in 10.0 mi NNW 9.2 mph - N/A   Overcast
11:10 PM 8.4 °F -4.9 °F 3.7 °F 81% 30.16 in 10.0 mi NW 9.2 mph - N/A   Overcast
11:30 PM 8.1 °F -5.3 °F 2.8 °F 79% 30.16 in 10.0 mi NNW 9.2 mph - N/A   Overcast
11:50 PM 8.1 °F -5.3 °F 3.2 °F 81% 30.16 in 10.0 mi NW 9.2 mph - N/A   Overcast